Погода в Прасковее

Россия / Ставропольский край     44°44′40″N   44°12′08″E
темп.,
°C
ветер,
м/с
пор.,
м/с
влажн.,
%
обл.,
%
осадки,
мм/ч
давл.,
гПа
погр.,
м
17 июня, чт
чт1700:00+22всв511710 0.0 1005318
03:00+21в4117722 0.0 1004366
06:00+22вюв26784 0.0 1004427
09:00+26зсз456522 0.1 1005939
12:00+29зсз995484 0.0 10071563
15:00+27сз1112566 0.0 10081171
18:00+23сз1014680 1.1 1011967
21:00+19зсз714760 1.5 1014724
18 июня, пт
пт1800:00+18з512800 0.0 1015474
03:00+16з512890 0.0 1016396
06:00+18з510850 0.0 1016413
09:00+23зсз56620 0.0 1016852
12:00+27зсз55480 0.0 10151149
15:00+29ссз22420 0.0 10141739
18:00+29ссз124340 0.0 10141812
21:00+24зсз236079 0.0 101537
19 июня, сб
сб1900:00+22ссз22710 0.0 101516
03:00+21св33780 0.0 101550
06:00+23в610830 0.0 1015441
09:00+28в7953100 0.0 10151047
12:00+32в101235100 0.0 10131732
15:00+31в111336100 0.0 10131439
18:00+28в101538100 0.0 10131023
21:00+24в817395 0.0 1014663
20 июня, вс
вс2000:00+22всв616390 0.0 1013520
03:00+22в7174163 0.0 1012593
06:00+23в71653100 0.0 1012631
09:00+30в8124162 0.0 1011908
12:00+35вюв1114275 0.0 10101797
15:00+35вюв1115250 0.0 10101963
18:00+30в1014323 0.0 10111124
21:00+24в816395 0.0 1013609
21 июня, пн
пн2100:00+22в614470 0.0 1013470
03:00+21в614590 0.0 1012417
06:00+23в614570 0.0 1012566
09:00+29вюв914310 0.0 1011996
12:00+35вюв1215160 0.0 10101929
15:00+35вюв1115150 0.0 10092047
18:00+30в1014230 0.0 1010827
21:00+24в8153188 0.0 1012460